Total_Precipitation_Accumulation
0.03 0.03 0.02 0.02 0.03 0.02 0.02 0.02 0.02 0.01 0.02 0.02 0.02 0.02 0.03 0.03 0.03 0.02 0.02 0.02 0.02 0.03 0.02 0.01 0.02 0.02 0.01 0.02 0.01 0.00 0.00 0.00 0.00 0.00 0.00 0.00 0.00 0.00 0.00 0.00 0.00 0.00 0.00 0.00 0.00 0.00 0.01 0.01 0.01 0.00 0.01 0.01 0.01 0.02 0.06 0.32 0.22 0.49 1.24 0.94 1.85 1.90 1.26 0.78 0.75 0.90 0.54 0.94 0.50 0.78 1.04 0.72 0.36 0.31 0.75 0.58 0.70 0.62 0.53 0.45 0.08 0.05 0.07 0.02 0.01 0.01 0.00 0.02
0.03 0.03 0.03 0.03 0.03 0.02 0.02 0.01 0.01 0.01 0.01 0.02 0.02 0.02 0.02 0.02 0.03 0.03 0.02 0.03 0.03 0.02 0.02 0.02 0.02 0.01 0.02 0.01 0.00 0.00 0.01 0.00 0.00 0.00 0.00 0.00 0.00 0.00 0.00 0.00 0.00 0.00 0.00 0.01 0.00 0.00 0.00 0.00 0.00 0.00 0.00 0.02 0.00 0.03 0.04 0.37 0.19 0.77 1.04 1.38 1.92 1.10 1.05 0.55 0.52 0.18 0.80 0.78 0.40 0.67 1.04 0.95 0.37 0.51 0.54 1.35 0.62 0.65 0.58 0.15 0.13 0.07 0.03 0.01 0.01 0.00 0.01 0.02
0.02 0.02 0.02 0.03 0.02 0.01 0.01 0.01 0.01 0.01 0.02 0.02 0.01 0.02 0.01 0.02 0.02 0.03 0.03 0.03 0.03 0.02 0.02 0.02 0.02 0.02 0.02 0.01 0.00 0.00 0.01 0.00 0.00 0.00 0.00 0.00 0.00 0.00 0.00 0.00 0.00 0.00 0.00 0.00 0.00 0.00 0.00 0.00 0.00 0.00 0.00 0.00 0.00 0.04 0.04 0.78 0.23 0.43 0.85 1.19 1.52 0.20 0.75 0.07 0.23 0.57 0.51 0.31 0.57 0.59 0.47 0.80 0.39 0.42 0.11 0.97 0.54 0.53 0.52 0.09 0.08 0.05 0.06 0.03 0.02 0.01 0.02 0.03
0.02 0.02 0.02 0.02 0.01 0.01 0.01 0.01 0.01 0.01 0.02 0.02 0.01 0.01 0.02 0.02 0.02 0.03 0.04 0.03 0.02 0.02 0.02 0.03 0.03 0.02 0.02 0.00 0.00 0.01 0.00 0.00 0.00 0.00 0.00 0.00 0.00 0.00 0.00 0.00 0.00 0.00 0.00 0.00 0.00 0.00 0.00 0.00 0.00 0.00 0.00 0.00 0.00 0.00 0.02 0.37 0.19 0.42 0.58 0.97 1.00 0.53 0.27 0.31 0.49 0.57 0.29 0.54 0.29 0.65 0.25 0.39 0.29 0.37 0.51 0.40 0.31 0.39 0.50 0.05 0.02 0.01 0.01 0.02 0.01 0.01 0.02 0.03
0.02 0.02 0.03 0.02 0.01 0.01 0.01 0.02 0.02 0.02 0.02 0.02 0.01 0.02 0.02 0.02 0.03 0.03 0.03 0.02 0.02 0.01 0.02 0.03 0.02 0.02 0.00 0.00 0.00 0.00 0.00 0.00 0.00 0.00 0.00 0.00 0.00 0.00 0.00 0.00 0.00 0.00 0.00 0.00 0.00 0.00 0.00 0.00 0.00 0.00 0.00 0.00 0.00 0.00 0.01 0.05 0.04 0.04 0.49 0.25 0.18 0.44 0.68 0.47 0.39 0.33 0.13 0.52 0.62 0.62 0.18 0.70 0.28 0.93 0.74 0.36 0.72 0.83 0.33 0.10 0.00 0.01 0.00 0.01 0.00 0.01 0.00 0.01
0.02 0.03 0.02 0.02 0.01 0.01 0.02 0.02 0.01 0.01 0.01 0.01 0.01 0.01 0.01 0.02 0.02 0.02 0.02 0.01 0.02 0.02 0.02 0.02 0.02 0.00 0.00 0.00 0.00 0.01 0.00 0.00 0.00 0.00 0.00 0.00 0.00 0.00 0.00 0.00 0.00 0.00 0.00 0.00 0.00 0.00 0.00 0.00 0.00 0.00 0.00 0.00 0.00 0.01 0.00 0.03 0.07 0.26 0.08 0.11 0.04 0.14 0.71 0.26 0.27 0.21 0.58 0.82 0.54 0.21 0.25 0.31 0.49 0.40 0.34 0.72 1.14 0.49 0.25 0.16 0.01 0.01 0.00 0.01 0.00 0.00 0.02 0.01
0.02 0.02 0.02 0.02 0.02 0.02 0.02 0.01 0.01 0.01 0.01 0.01 0.01 0.01 0.01 0.01 0.01 0.01 0.01 0.01 0.02 0.02 0.02 0.01 0.01 0.01 0.00 0.00 0.00 0.00 0.00 0.00 0.00 0.00 0.00 0.00 0.00 0.00 0.00 0.00 0.00 0.00 0.00 0.00 0.00 0.00 0.00 0.00 0.00 0.00 0.00 0.00 0.00 0.00 0.00 0.00 0.01 0.03 0.24 0.09 0.19 0.23 0.36 0.17 0.25 0.17 0.65 0.84 0.69 0.93 0.09 0.67 0.47 0.36 0.68 0.72 0.46 0.27 0.33 0.02 0.00 0.00 0.00 0.00 0.00 0.00 0.01 0.00
0.02 0.01 0.01 0.01 0.01 0.01 0.01 0.01 0.01 0.01 0.01 0.01 0.01 0.01 0.01 0.01 0.01 0.01 0.01 0.02 0.02 0.01 0.02 0.02 0.02 0.00 0.00 0.00 0.00 0.00 0.00 0.00 0.00 0.00 0.00 0.00 0.00 0.00 0.00 0.00 0.00 0.00 0.00 0.00 0.00 0.00 0.00 0.00 0.00 0.00 0.00 0.17 0.00 0.00 0.00 0.03 0.10 0.02 0.07 0.07 0.13 0.27 0.27 0.20 0.27 0.43 0.17 0.66 0.81 0.92 0.51 0.66 0.41 0.70 0.41 0.85 0.43 0.07 0.07 0.01 0.00 0.00 0.00 0.00 0.00 0.00 0.00 0.01
0.02 0.02 0.01 0.01 0.01 0.01 0.01 0.01 0.01 0.01 0.01 0.01 0.01 0.01 0.01 0.01 0.01 0.01 0.01 0.01 0.01 0.02 0.02 0.03 0.00 0.00 0.01 0.00 0.00 0.00 0.00 0.00 0.00 0.00 0.00 0.00 0.00 0.00 0.00 0.00 0.00 0.00 0.00 0.00 0.00 0.00 0.00 0.00 0.00 0.00 0.00 0.00 0.00 0.00 0.00 0.00 0.14 0.01 0.05 0.08 0.07 0.09 0.15 0.39 0.31 0.24 0.29 0.57 0.75 0.82 0.71 0.44 0.68 0.27 0.92 0.53 0.33 0.05 0.04 0.00 0.00 0.00 0.00 0.00 0.01 0.00 0.00 0.00
0.01 0.01 0.01 0.01 0.02 0.01 0.01 0.01 0.01 0.01 0.01 0.01 0.01 0.01 0.01 0.01 0.01 0.01 0.00 0.01 0.01 0.02 0.02 0.01 0.00 0.00 0.00 0.00 0.00 0.00 0.00 0.00 0.00 0.00 0.00 0.00 0.00 0.00 0.00 0.00 0.00 0.00 0.00 0.00 0.00 0.00 0.00 0.00 0.06 0.01 0.00 0.00 0.00 0.00 0.00 0.01 0.10 0.00 0.03 0.06 0.13 0.08 0.21 0.44 0.81 0.10 0.81 1.20 1.35 1.60 0.80 1.04 0.67 0.45 0.82 0.20 0.32 0.14 0.02 0.00 0.00 0.00 0.00 0.00 0.01 0.00 0.00 0.00
0.01 0.01 0.01 0.01 0.01 0.01 0.01 0.01 0.01 0.01 0.01 0.01 0.01 0.01 0.01 0.01 0.01 0.01 0.01 0.01 0.01 0.01 0.02 0.00 0.00 0.01 0.00 0.00 0.00 0.00 0.00 0.00 0.00 0.00 0.00 0.00 0.00 0.00 0.00 0.00 0.00 0.00 0.00 0.00 0.00 0.00 0.00 0.00 0.00 0.00 0.00 0.00 0.00 0.00 0.00 0.00 0.00 0.01 0.02 0.03 0.06 0.09 0.18 0.49 0.84 0.47 0.33 0.78 0.80 1.68 0.98 0.80 0.54 0.49 0.49 0.18 0.10 0.03 0.03 0.00 0.00 0.00 0.00 0.00 0.00 0.00 0.00 0.00
0.01 0.01 0.01 0.01 0.01 0.01 0.01 0.01 0.01 0.01 0.01 0.00 0.01 0.01 0.01 0.01 0.01 0.01 0.01 0.01 0.01 0.01 0.01 0.00 0.00 0.00 0.00 0.00 0.00 0.00 0.00 0.00 0.00 0.00 0.00 0.00 0.00 0.00 0.00 0.00 0.00 0.00 0.00 0.00 0.00 0.00 0.00 0.00 0.00 0.00 0.00 0.00 0.00 0.00 0.00 0.00 0.00 0.02 0.02 0.06 0.05 0.05 0.21 0.59 0.97 0.82 0.54 0.66 0.73 1.08 1.30 0.73 0.48 0.96 0.36 0.10 0.07 0.16 0.03 0.00 0.00 0.00 0.00 0.00 0.00 0.00 0.01 0.00
0.00 0.01 0.01 0.00 0.00 0.01 0.01 0.01 0.01 0.01 0.00 0.00 0.01 0.01 0.01 0.01 0.01 0.01 0.01 0.00 0.00 0.00 0.01 0.00 0.00 0.00 0.00 0.00 0.00 0.00 0.00 0.00 0.00 0.00 0.00 0.00 0.00 0.00 0.00 0.00 0.00 0.00 0.00 0.00 0.00 0.00 0.00 0.00 0.00 0.00 0.00 0.00 0.00 0.00 0.00 0.00 0.00 0.01 0.01 0.02 0.02 0.16 0.27 0.64 1.15 1.08 1.01 0.98 0.84 1.27 1.45 0.96 0.81 0.60 0.25 0.11 0.16 0.07 0.02 0.01 0.00 0.01 0.00 0.00 0.00 0.00 0.01 0.01
0.01 0.01 0.01 0.01 0.00 0.01 0.01 0.01 0.01 0.01 0.01 0.01 0.01 0.01 0.01 0.01 0.01 0.00 0.00 0.00 0.00 0.01 0.01 0.00 0.00 0.00 0.00 0.00 0.00 0.00 0.00 0.00 0.00 0.00 0.00 0.00 0.00 0.00 0.00 0.00 0.00 0.00 0.00 0.00 0.00 0.00 0.00 0.00 0.00 0.01 0.00 0.00 0.00 0.00 0.00 0.01 0.00 0.01 0.01 0.09 0.03 0.24 0.45 0.49 0.48 1.06 0.73 0.54 0.80 0.70 1.50 1.39 0.91 1.18 0.38 0.28 0.12 0.11 0.04 0.04 0.01 0.01 0.01 0.00 0.00 0.00 0.00 0.00
0.01 0.01 0.01 0.01 0.01 0.01 0.01 0.01 0.00 0.00 0.01 0.00 0.00 0.01 0.01 0.00 0.00 0.00 0.00 0.00 0.01 0.00 0.01 0.01 0.00 0.00 0.00 0.00 0.00 0.00 0.00 0.00 0.00 0.00 0.00 0.00 0.00 0.00 0.00 0.00 0.00 0.00 0.00 0.00 0.00 0.00 0.00 0.00 0.00 0.01 0.00 0.00 0.00 0.00 0.00 0.00 0.01 0.01 0.01 0.24 0.17 0.21 0.62 0.60 0.81 0.65 1.03 0.28 0.54 1.29 1.33 1.00 0.87 0.76 0.63 0.54 0.17 0.26 0.11 0.03 0.04 0.01 0.01 0.00 0.00 0.01 0.01 0.00
0.00 0.01 0.00 0.01 0.01 0.00 0.00 0.00 0.00 0.00 0.00 0.01 0.00 0.01 0.00 0.00 0.00 0.00 0.00 0.00 0.00 0.00 0.01 0.00 0.00 0.00 0.00 0.00 0.00 0.00 0.00 0.00 0.00 0.00 0.00 0.00 0.00 0.00 0.00 0.00 0.00 0.00 0.00 0.00 0.00 0.00 0.00 0.00 0.00 0.00 0.00 0.00 0.00 0.00 0.00 0.00 0.01 0.00 0.08 0.22 0.19 0.02 0.33 0.18 0.65 0.76 0.25 0.33 0.70 1.18 1.44 0.88 0.82 0.51 0.27 0.23 0.13 0.10 0.12 0.02 0.03 0.08 0.01 0.00 0.00 0.00 0.01 0.02
0.00 0.00 0.00 0.01 0.01 0.01 0.00 0.00 0.00 0.00 0.00 0.01 0.00 0.00 0.00 0.00 0.00 0.00 0.00 0.00 0.01 0.00 0.00 0.00 0.00 0.00 0.00 0.00 0.00 0.00 0.00 0.00 0.00 0.00 0.00 0.00 0.00 0.00 0.00 0.00 0.00 0.00 0.00 0.00 0.00 0.00 0.00 0.00 0.00 0.00 0.00 0.00 0.00 0.00 0.00 0.00 0.09 0.02 0.00 0.28 0.02 0.29 0.17 0.25 0.14 0.31 0.36 0.49 0.30 0.70 1.12 0.73 0.48 0.32 0.64 0.50 0.41 0.25 0.38 0.15 0.10 0.11 0.09 0.03 0.02 0.01 0.01 0.00
0.00 0.00 0.00 0.00 0.00 0.01 0.00 0.00 0.00 0.00 0.00 0.00 0.00 0.00 0.00 0.00 0.00 0.00 0.00 0.00 0.00 0.00 0.00 0.00 0.00 0.00 0.00 0.00 0.00 0.00 0.00 0.00 0.00 0.00 0.00 0.00 0.00 0.00 0.00 0.00 0.00 0.00 0.00 0.00 0.00 0.00 0.00 0.00 0.00 0.00 0.00 0.00 0.00 0.00 0.00 0.05 0.10 0.03 0.01 0.03 0.04 0.13 0.03 0.43 0.15 0.27 0.12 0.32 0.36 0.36 0.49 0.26 0.50 0.28 0.35 0.58 0.51 0.78 0.65 0.56 0.69 0.15 0.13 0.03 0.02 0.05 0.03 0.01
0.00 0.00 0.00 0.00 0.00 0.01 0.00 0.00 0.00 0.00 0.00 0.00 0.00 0.00 0.01 0.00 0.00 0.00 0.00 0.00 0.00 0.00 0.00 0.00 0.00 0.00 0.00 0.00 0.00 0.00 0.00 0.00 0.00 0.00 0.00 0.00 0.00 0.00 0.00 0.00 0.00 0.00 0.00 0.00 0.00 0.00 0.00 0.00 0.00 0.00 0.00 0.00 0.00 0.00 0.00 0.00 0.00 0.01 0.12 0.07 0.04 0.21 0.02 0.16 0.17 0.04 0.05 0.27 0.28 0.16 0.37 0.29 0.45 0.28 0.69 0.55 0.25 0.67 0.31 0.53 0.52 0.53 0.33 0.07 0.03 0.02 0.01 0.01
0.00 0.00 0.00 0.00 0.00 0.01 0.00 0.00 0.00 0.00 0.01 0.00 0.00 0.00 0.00 0.00 0.00 0.00 0.00 0.00 0.00 0.00 0.00 0.00 0.00 0.00 0.00 0.00 0.00 0.00 0.00 0.00 0.00 0.00 0.00 0.00 0.00 0.00 0.00 0.00 0.00 0.00 0.00 0.00 0.00 0.00 0.00 0.00 0.00 0.00 0.00 0.00 0.00 0.00 0.00 0.00 0.00 0.00 0.01 0.03 0.07 0.03 0.14 0.12 0.13 0.07 0.06 0.16 0.23 0.33 0.40 0.47 0.19 0.24 0.72 1.08 0.90 0.47 0.50 0.67 0.36 0.48 0.28 0.13 0.07 0.05 0.02 0.05
0.00 0.00 0.00 0.00 0.00 0.00 0.00 0.00 0.00 0.00 0.02 0.00 0.00 0.00 0.00 0.00 0.00 0.00 0.00 0.00 0.00 0.00 0.00 0.00 0.00 0.00 0.00 0.00 0.00 0.00 0.00 0.00 0.00 0.00 0.00 0.00 0.00 0.00 0.00 0.00 0.00 0.00 0.00 0.00 0.00 0.00 0.00 0.00 0.00 0.00 0.00 0.00 0.00 0.00 0.00 0.00 0.00 0.00 0.01 0.03 0.02 0.01 0.07 0.07 0.15 0.04 0.09 0.16 0.10 0.21 0.45 0.23 0.41 0.89 0.99 0.99 0.98 0.41 0.37 0.33 0.67 0.60 0.69 0.44 0.38 0.04 0.02 0.05
0.00 0.00 0.00 0.00 0.00 0.00 0.00 0.00 0.00 0.01 0.01 0.00 0.00 0.00 0.00 0.00 0.00 0.00 0.00 0.00 0.00 0.00 0.00 0.00 0.00 0.00 0.00 0.00 0.00 0.00 0.00 0.00 0.00 0.00 0.00 0.00 0.00 0.00 0.00 0.00 0.00 0.00 0.00 0.00 0.00 0.00 0.00 0.00 0.00 0.00 0.00 0.00 0.00 0.00 0.00 0.00 0.00 0.00 0.01 0.01 0.02 0.01 0.06 0.01 0.04 0.08 0.04 0.07 0.45 0.33 0.38 0.52 0.72 1.25 1.01 0.95 0.99 0.65 0.68 0.41 0.52 0.65 0.80 0.84 0.22 0.19 0.04 0.03
0.00 0.00 0.00 0.00 0.00 0.00 0.00 0.00 0.00 0.01 0.00 0.00 0.00 0.00 0.00 0.00 0.00 0.00 0.00 0.00 0.00 0.00 0.00 0.00 0.00 0.00 0.00 0.00 0.00 0.00 0.00 0.00 0.00 0.00 0.00 0.00 0.00 0.00 0.00 0.00 0.00 0.00 0.00 0.00 0.00 0.00 0.00 0.00 0.00 0.00 0.00 0.00 0.00 0.00 0.00 0.00 0.00 0.00 0.00 0.00 0.02 0.05 0.01 0.06 0.03 0.07 0.18 0.11 0.53 0.57 0.60 0.49 0.72 0.89 1.01 1.04 1.42 1.64 1.38 0.73 0.62 0.99 0.65 0.46 0.37 0.26 0.12 0.03
0.00 0.00 0.00 0.00 0.00 0.00 0.00 0.00 0.01 0.01 0.00 0.00 0.00 0.00 0.00 0.00 0.00 0.00 0.00 0.00 0.00 0.00 0.00 0.00 0.00 0.00 0.00 0.00 0.00 0.00 0.00 0.00 0.00 0.00 0.00 0.00 0.00 0.00 0.00 0.00 0.00 0.00 0.00 0.00 0.00 0.00 0.00 0.00 0.00 0.00 0.00 0.00 0.00 0.00 0.00 0.00 0.00 0.00 0.00 0.00 0.00 0.00 0.01 0.01 0.15 0.02 0.02 0.03 0.42 0.47 0.56 1.08 1.52 1.09 0.93 0.84 0.82 0.99 0.42 0.43 0.75 0.35 0.44 0.73 0.47 0.54 0.14 0.08
0.00 0.00 0.00 0.00 0.00 0.00 0.00 0.00 0.00 0.00 0.00 0.00 0.00 0.00 0.00 0.00 0.00 0.00 0.00 0.00 0.00 0.00 0.00 0.00 0.00 0.00 0.00 0.00 0.00 0.00 0.00 0.00 0.00 0.00 0.00 0.00 0.00 0.00 0.00 0.00 0.00 0.00 0.00 0.00 0.00 0.00 0.00 0.00 0.00 0.00 0.00 0.00 0.00 0.00 0.00 0.00 0.00 0.00 0.00 0.00 0.00 0.00 0.00 0.00 0.01 0.01 0.01 0.40 1.13 0.06 0.29 0.41 0.65 0.49 0.60 0.66 0.42 0.42 0.34 0.20 0.21 0.28 0.77 0.36 0.45 0.40 0.19 0.06
0.00 0.00 0.00 0.00 0.00 0.00 0.00 0.00 0.00 0.00 0.00 0.00 0.00 0.00 0.00 0.00 0.00 0.00 0.00 0.00 0.00 0.00 0.00 0.00 0.00 0.00 0.00 0.00 0.00 0.00 0.00 0.00 0.00 0.00 0.00 0.00 0.00 0.00 0.00 0.00 0.00 0.00 0.00 0.00 0.00 0.00 0.00 0.00 0.00 0.00 0.00 0.00 0.00 0.00 0.00 0.00 0.00 0.00 0.00 0.00 0.00 0.00 0.00 0.01 0.02 0.06 0.16 0.16 0.08 0.10 0.21 0.42 0.27 0.37 0.29 0.21 0.19 0.21 0.27 0.18 0.20 0.16 0.22 0.19 0.36 1.03 0.14 0.24
0.00 0.00 0.00 0.00 0.00 0.00 0.00 0.00 0.00 0.00 0.00 0.00 0.00 0.00 0.00 0.00 0.00 0.00 0.00 0.00 0.00 0.00 0.00 0.00 0.00 0.00 0.00 0.00 0.00 0.00 0.00 0.00 0.00 0.00 0.00 0.00 0.00 0.00 0.00 0.00 0.00 0.00 0.00 0.00 0.00 0.00 0.00 0.00 0.00 0.00 0.00 0.00 0.00 0.00 0.00 0.00 0.00 0.00 0.00 0.00 0.00 0.00 0.00 0.00 0.02 0.16 0.06 0.01 0.29 0.03 0.13 0.34 0.24 0.07 0.23 0.26 0.46 0.30 0.72 0.27 0.16 0.18 0.06 0.15 0.21 0.36 0.17 0.06
0.00 0.00 0.00 0.00 0.00 0.02 0.00 0.00 0.00 0.00 0.00 0.00 0.00 0.00 0.00 0.00 0.00 0.00 0.00 0.00 0.00 0.00 0.00 0.00 0.00 0.00 0.00 0.00 0.00 0.00 0.00 0.00 0.00 0.00 0.00 0.00 0.00 0.00 0.00 0.00 0.00 0.00 0.00 0.00 0.00 0.00 0.00 0.00 0.00 0.00 0.00 0.00 0.00 0.00 0.00 0.00 0.00 0.01 0.00 0.00 0.02 0.03 0.00 0.00 0.00 0.02 0.27 0.14 0.11 0.02 0.01 0.05 0.07 0.05 0.05 0.15 0.28 0.19 0.26 0.15 0.26 0.10 0.08 0.04 0.34 0.11 0.12 0.08
0.00 0.00 0.00 0.00 0.00 0.00 0.00 0.00 0.00 0.00 0.00 0.00 0.00 0.00 0.00 0.00 0.00 0.00 0.05 0.03 0.00 0.00 0.00 0.00 0.00 0.00 0.00 0.00 0.00 0.00 0.00 0.00 0.00 0.00 0.00 0.00 0.00 0.00 0.00 0.00 0.00 0.00 0.00 0.00 0.00 0.00 0.00 0.00 0.00 0.00 0.00 0.00 0.00 0.00 0.00 0.00 0.00 0.00 0.00 0.00 0.00 0.02 0.01 0.00 0.01 0.01 0.13 0.02 0.05 0.01 0.01 0.07 0.23 0.15 0.04 0.11 0.10 0.23 0.12 0.09 0.07 0.07 0.06 0.08 0.22 0.09 0.11 0.09
0.00 0.00 0.00 0.00 0.00 0.00 0.00 0.00 0.00 0.00 0.00 0.00 0.00 0.00 0.00 0.00 0.00 0.02 0.02 0.03 0.00 0.00 0.00 0.00 0.00 0.00 0.00 0.00 0.00 0.00 0.00 0.00 0.00 0.00 0.00 0.00 0.00 0.00 0.00 0.00 0.00 0.00 0.00 0.00 0.00 0.00 0.00 0.00 0.00 0.00 0.00 0.00 0.00 0.00 0.00 0.00 0.00 0.00 0.00 0.00 0.00 0.00 0.06 0.01 0.04 0.09 0.10 0.04 0.02 0.00 0.05 0.01 0.28 0.42 0.41 0.26 0.20 0.09 0.18 0.04 0.16 0.09 0.05 0.07 0.06 0.06 0.04 0.10
0.00 0.00 0.00 0.01 0.01 0.00 0.00 0.00 0.00 0.00 0.00 0.00 0.00 0.00 0.00 0.00 0.01 0.03 0.06 0.00 0.00 0.00 0.00 0.00 0.00 0.00 0.00 0.00 0.00 0.00 0.00 0.00 0.00 0.00 0.00 0.00 0.00 0.00 0.00 0.00 0.00 0.00 0.00 0.00 0.00 0.00 0.00 0.00 0.00 0.00 0.00 0.00 0.00 0.00 0.00 0.00 0.00 0.00 0.00 0.00 0.00 0.00 0.03 0.17 0.06 0.09 0.25 0.14 0.01 0.00 0.01 0.01 0.07 0.23 0.13 0.03 0.01 0.03 0.18 0.05 0.06 0.05 0.02 0.04 0.06 0.08 0.07 0.63
0.00 0.00 0.00 0.00 0.00 0.01 0.00 0.00 0.00 0.00 0.00 0.00 0.00 0.00 0.00 0.03 0.00 0.11 0.04 0.00 0.01 0.00 0.00 0.00 0.00 0.00 0.00 0.00 0.00 0.00 0.00 0.00 0.00 0.00 0.00 0.00 0.00 0.00 0.00 0.00 0.00 0.00 0.00 0.00 0.00 0.00 0.00 0.00 0.00 0.00 0.00 0.00 0.00 0.00 0.00 0.00 0.00 0.00 0.00 0.00 0.02 0.03 0.01 0.28 0.17 0.13 0.03 0.02 0.01 0.00 0.01 0.07 0.05 0.04 0.01 0.08 0.14 0.02 0.02 0.02 0.01 0.03 0.01 0.01 0.05 0.05 0.04 0.06
0.00 0.00 0.00 0.00 0.00 0.00 0.00 0.00 0.00 0.00 0.00 0.00 0.00 0.00 0.01 0.08 0.03 0.02 0.05 0.00 0.01 0.00 0.00 0.00 0.00 0.00 0.00 0.00 0.00 0.00 0.00 0.00 0.00 0.00 0.00 0.00 0.00 0.00 0.00 0.00 0.00 0.00 0.04 0.00 0.00 0.00 0.00 0.00 0.00 0.00 0.00 0.00 0.00 0.00 0.00 0.00 0.00 0.00 0.00 0.00 0.02 0.02 0.02 0.02 0.03 0.03 0.01 0.00 0.03 0.01 0.05 0.07 0.06 0.01 0.02 0.00 0.01 0.09 0.01 0.01 0.02 0.02 0.01 0.01 0.04 0.05 0.05 0.13
0.00 0.00 0.00 0.00 0.00 0.00 0.00 0.00 0.00 0.00 0.00 0.00 0.00 0.00 0.02 0.11 0.01 0.00 0.00 0.00 0.00 0.00 0.00 0.00 0.00 0.00 0.00 0.00 0.00 0.00 0.00 0.00 0.00 0.00 0.00 0.00 0.00 0.00 0.00 0.00 0.00 0.00 0.00 0.00 0.00 0.00 0.00 0.00 0.00 0.00 0.00 0.00 0.00 0.00 0.00 0.00 0.00 0.00 0.00 0.00 0.01 0.02 0.00 0.01 0.02 0.04 0.00 0.01 0.00 0.02 0.05 0.14 0.06 0.03 0.00 0.02 0.00 0.01 0.03 0.00 0.01 0.01 0.00 0.02 0.19 0.08 0.10 0.08
0.00 0.00 0.00 0.00 0.00 0.00 0.00 0.00 0.00 0.00 0.00 0.00 0.00 0.07 0.08 0.04 0.01 0.04 0.02 0.01 0.00 0.00 0.00 0.00 0.00 0.00 0.00 0.00 0.00 0.00 0.00 0.00 0.00 0.00 0.00 0.00 0.00 0.00 0.00 0.00 0.00 0.00 0.00 0.00 0.00 0.00 0.00 0.00 0.00 0.00 0.00 0.00 0.00 0.00 0.00 0.00 0.00 0.00 0.00 0.00 0.01 0.01 0.02 0.10 0.01 0.07 0.10 0.04 0.01 0.03 0.10 0.15 0.29 0.12 0.05 0.15 0.02 0.02 0.01 0.00 0.02 0.03 0.11 0.27 0.23 0.16 0.08 0.07
0.00 0.00 0.00 0.00 0.00 0.00 0.00 0.00 0.00 0.00 0.00 0.00 0.03 0.08 0.07 0.02 0.03 0.00 0.00 0.00 0.00 0.00 0.00 0.00 0.00 0.00 0.00 0.02 0.00 0.00 0.00 0.00 0.00 0.00 0.00 0.00 0.00 0.02 0.00 0.00 0.00 0.00 0.00 0.00 0.01 0.00 0.00 0.00 0.00 0.00 0.00 0.00 0.00 0.00 0.00 0.00 0.00 0.00 0.00 0.00 0.01 0.00 0.01 0.01 0.01 0.00 0.04 0.05 0.19 0.00 0.01 0.01 0.04 0.12 0.34 0.13 0.64 0.78 0.33 0.37 0.48 0.50 0.62 0.68 0.17 0.37 0.20 0.15
0.00 0.00 0.00 0.00 0.00 0.00 0.00 0.00 0.00 0.00 0.00 0.00 0.12 0.04 0.00 0.00 0.00 0.00 0.00 0.00 0.00 0.00 0.00 0.00 0.00 0.00 0.00 0.00 0.00 0.00 0.00 0.00 0.00 0.00 0.00 0.00 0.00 0.00 0.00 0.00 0.00 0.00 0.00 0.00 0.00 0.00 0.00 0.00 0.00 0.00 0.00 0.00 0.00 0.00 0.00 0.00 0.00 0.00 0.00 0.00 0.00 0.00 0.00 0.01 0.03 0.01 0.01 0.01 0.04 0.00 0.11 0.18 0.02 0.14 0.08 0.08 0.24 0.21 0.61 0.50 0.47 0.54 0.45 0.45 0.49 0.44 0.67 0.70
0.00 0.00 0.00 0.00 0.00 0.00 0.00 0.00 0.00 0.00 0.00 0.05 0.08 0.00 0.00 0.01 0.00 0.00 0.00 0.00 0.01 0.00 0.01 0.00 0.00 0.00 0.00 0.00 0.00 0.00 0.00 0.00 0.00 0.00 0.00 0.00 0.01 0.00 0.00 0.00 0.00 0.00 0.00 0.00 0.00 0.00 0.00 0.00 0.00 0.00 0.00 0.00 0.00 0.00 0.00 0.00 0.00 0.00 0.00 0.00 0.00 0.02 0.05 0.00 0.01 0.02 0.03 0.02 0.08 0.04 0.07 0.04 0.08 0.13 0.02 0.01 0.01 0.05 0.04 0.03 0.05 0.08 0.26 0.29 0.18 0.16 0.28 0.38
0.00 0.00 0.00 0.00 0.00 0.00 0.00 0.00 0.00 0.01 0.04 0.20 0.05 0.01 0.05 0.01 0.00 0.00 0.00 0.00 0.00 0.00 0.00 0.00 0.00 0.00 0.00 0.00 0.00 0.00 0.00 0.00 0.00 0.00 0.02 0.00 0.01 0.00 0.00 0.00 0.00 0.00 0.00 0.00 0.00 0.00 0.00 0.00 0.00 0.00 0.00 0.00 0.00 0.00 0.00 0.00 0.00 0.00 0.00 0.00 0.00 0.00 0.01 0.02 0.00 0.09 0.00 0.23 0.03 0.24 0.21 0.28 0.17 0.29 0.17 0.10 0.11 0.02 0.04 0.03 0.02 0.03 0.03 0.14 0.19 0.23 0.39 0.37
0.00 0.00 0.00 0.00 0.00 0.00 0.00 0.00 0.00 0.01 0.12 0.06 0.04 0.03 0.00 0.00 0.00 0.00 0.00 0.00 0.01 0.00 0.00 0.00 0.00 0.00 0.00 0.00 0.00 0.00 0.00 0.00 0.00 0.00 0.00 0.00 0.00 0.00 0.00 0.00 0.00 0.00 0.00 0.00 0.00 0.00 0.00 0.00 0.00 0.00 0.00 0.00 0.00 0.00 0.00 0.00 0.00 0.00 0.00 0.00 0.00 0.00 0.00 0.01 0.02 0.05 0.03 0.07 0.10 0.09 0.11 0.11 0.19 0.13 0.62 0.64 0.13 0.01 0.01 0.03 0.02 0.03 0.03 0.04 0.22 0.35 0.28 0.22
0.00 0.00 0.00 0.00 0.00 0.00 0.00 0.00 0.02 0.05 0.05 0.08 0.00 0.01 0.00 0.00 0.00 0.00 0.00 0.00 0.00 0.00 0.00 0.00 0.00 0.00 0.00 0.00 0.00 0.00 0.00 0.00 0.00 0.00 0.00 0.00 0.00 0.00 0.00 0.00 0.00 0.00 0.00 0.00 0.00 0.00 0.00 0.00 0.00 0.00 0.00 0.00 0.00 0.00 0.00 0.00 0.00 0.00 0.00 0.00 0.00 0.00 0.00 0.00 0.00 0.00 0.00 0.02 0.05 0.06 0.36 0.09 0.12 0.01 0.05 0.44 0.12 0.19 0.01 0.01 0.02 0.02 0.03 0.03 0.11 0.35 0.12 0.12
0.00 0.01 0.00 0.00 0.00 0.00 0.00 0.05 0.05 0.01 0.03 0.05 0.06 0.02 0.01 0.00 0.00 0.00 0.00 0.00 0.00 0.00 0.00 0.00 0.00 0.00 0.00 0.00 0.00 0.00 0.00 0.00 0.01 0.01 0.01 0.01 0.00 0.00 0.00 0.00 0.00 0.00 0.00 0.00 0.01 0.04 0.00 0.00 0.00 0.00 0.00 0.00 0.00 0.00 0.00 0.00 0.00 0.00 0.00 0.00 0.00 0.00 0.00 0.00 0.00 0.03 0.00 0.01 0.01 0.09 0.05 0.28 0.03 0.13 0.04 0.16 0.41 0.36 0.33 0.09 0.10 0.06 0.11 0.13 0.07 0.14 0.39 0.34
0.00 0.00 0.00 0.00 0.00 0.00 0.00 0.05 0.02 0.03 0.03 0.02 0.00 0.08 0.03 0.01 0.01 0.01 0.01 0.01 0.01 0.00 0.01 0.00 0.00 0.00 0.00 0.00 0.00 0.00 0.00 0.00 0.01 0.03 0.02 0.02 0.02 0.01 0.00 0.00 0.00 0.00 0.00 0.00 0.00 0.00 0.00 0.01 0.00 0.00 0.00 0.00 0.00 0.00 0.00 0.00 0.00 0.00 0.00 0.00 0.00 0.00 0.00 0.00 0.00 0.01 0.02 0.13 0.08 0.12 0.04 0.11 0.19 0.10 0.15 0.04 0.36 0.22 0.21 0.51 0.70 0.65 0.54 0.41 0.40 0.28 0.04 0.13
0.00 0.00 0.00 0.00 0.00 0.00 0.01 0.03 0.05 0.04 0.05 0.01 0.01 0.02 0.01 0.01 0.02 0.05 0.04 0.08 0.02 0.09 0.07 0.02 0.00 0.02 0.01 0.00 0.00 0.03 0.00 0.00 0.01 0.02 0.04 0.03 0.04 0.01 0.00 0.00 0.00 0.00 0.00 0.00 0.00 0.01 0.02 0.01 0.00 0.01 0.00 0.00 0.00 0.00 0.00 0.00 0.00 0.00 0.00 0.00 0.00 0.00 0.01 0.01 0.00 0.01 0.01 0.04 0.06 0.06 0.09 0.06 0.12 0.16 0.15 0.12 0.11 0.21 0.09 0.11 0.02 0.06 0.07 0.07 0.21 0.44 0.76 0.24
0.02 0.00 0.00 0.00 0.00 0.00 0.06 0.04 0.06 0.04 0.02 0.02 0.01 0.03 0.05 0.05 0.03 0.02 0.02 0.01 0.07 0.06 0.01 0.03 0.03 0.06 0.01 0.02 0.00 0.00 0.00 0.00 0.03 0.04 0.03 0.04 0.07 0.02 0.00 0.00 0.00 0.00 0.00 0.00 0.00 0.00 0.00 0.01 0.02 0.05 0.01 0.01 0.02 0.01 0.06 0.21 0.01 0.01 0.00 0.00 0.00 0.01 0.00 0.00 0.00 0.02 0.00 0.08 0.04 0.08 0.12 0.08 0.05 0.06 0.02 0.24 0.18 0.07 0.05 0.09 0.02 0.02 0.01 0.01 0.28 0.05 0.12 0.07
0.01 0.15 0.00 0.00 0.01 0.02 0.01 0.00 0.03 0.04 0.04 0.03 0.01 0.03 0.01 0.06 0.07 0.05 0.02 0.04 0.02 0.03 0.02 0.10 0.02 0.04 0.06 0.02 0.03 0.02 0.02 0.01 0.02 0.05 0.05 0.09 0.08 0.06 0.01 0.01 0.00 0.00 0.00 0.00 0.00 0.00 0.00 0.00 0.01 0.01 0.02 0.10 0.25 0.03 0.00 0.00 0.00 0.01 0.00 0.00 0.01 0.00 0.00 0.00 0.01 0.05 0.01 0.06 0.08 0.08 0.02 0.10 0.09 0.10 0.05 0.04 0.05 0.07 0.05 0.03 0.06 0.02 0.02 0.02 0.01 0.02 0.03 0.07
0.07 0.05 0.02 0.12 0.04 0.15 0.03 0.06 0.03 0.08 0.09 0.05 0.05 0.02 0.01 0.03 0.03 0.06 0.04 0.12 0.05 0.04 0.02 0.04 0.07 0.06 0.16 0.07 0.09 0.04 0.01 0.01 0.00 0.01 0.05 0.07 0.04 0.04 0.03 0.01 0.02 0.01 0.01 0.00 0.00 0.00 0.00 0.00 0.00 0.00 0.00 0.00 0.01 0.00 0.00 0.00 0.01 0.00 0.00 0.00 0.00 0.00 0.00 0.00 0.00 0.01 0.02 0.03 0.05 0.03 0.03 0.00 0.06 0.05 0.04 0.04 0.03 0.01 0.01 0.02 0.03 0.03 0.02 0.02 0.01 0.01 0.01 0.03
0.19 0.05 0.03 0.37 0.18 0.07 0.05 0.08 0.09 0.15 0.10 0.06 0.14 0.03 0.04 0.02 0.04 0.06 0.03 0.04 0.03 0.06 0.14 0.24 0.07 0.12 0.07 0.08 0.09 0.13 0.10 0.06 0.02 0.05 0.03 0.04 0.03 0.03 0.04 0.06 0.02 0.05 0.02 0.01 0.00 0.00 0.00 0.01 0.00 0.00 0.00 0.00 0.00 0.00 0.00 0.00 0.00 0.00 0.02 0.01 0.00 0.00 0.00 0.00 0.00 0.00 0.01 0.02 0.22 0.05 0.03 0.06 0.04 0.13 0.08 0.03 0.03 0.02 0.02 0.05 0.02 0.01 0.01 0.03 0.02 0.01 0.01 0.02
0.08 0.08 0.04 0.04 0.20 0.15 0.10 0.08 0.02 0.10 0.18 0.15 0.11 0.08 0.05 0.06 0.04 0.03 0.04 0.02 0.03 0.05 0.06 0.15 0.14 0.12 0.09 0.07 0.08 0.19 0.19 0.11 0.05 0.12 0.05 0.05 0.04 0.03 0.04 0.05 0.03 0.04 0.03 0.02 0.00 0.00 0.01 0.01 0.01 0.00 0.01 0.00 0.00 0.00 0.00 0.00 0.00 0.00 0.00 0.02 0.00 0.00 0.00 0.00 0.00 0.00 0.00 0.02 0.01 0.05 0.13 0.15 0.06 0.11 0.23 0.07 0.02 0.02 0.01 0.08 0.07 0.05 0.01 0.00 0.01 0.01 0.02 0.01
0.16 0.32 0.76 0.15 0.39 0.09 0.06 0.06 0.04 0.05 0.11 0.13 0.19 0.23 0.16 0.12 0.04 0.02 0.12 0.07 0.07 0.04 0.08 0.09 0.11 0.12 0.09 0.09 0.10 0.16 0.14 0.10 0.04 0.13 0.02 0.02 0.02 0.03 0.04 0.05 0.11 0.05 0.04 0.04 0.02 0.06 0.00 0.03 0.00 0.00 0.01 0.01 0.00 0.00 0.00 0.00 0.00 0.01 0.00 0.00 0.01 0.01 0.00 0.00 0.00 0.00 0.00 0.00 0.03 0.01 0.03 0.14 0.11 0.05 0.11 0.42 0.10 0.06 0.03 0.02 0.40 0.28 0.11 0.06 0.04 0.03 0.02 0.03
0.20 0.46 0.70 0.80 0.33 0.14 0.12 0.07 0.10 0.19 0.18 0.06 0.10 0.23 0.11 0.15 0.13 0.23 0.15 0.08 0.06 0.11 0.18 0.12 0.06 0.06 0.06 0.06 0.09 0.10 0.07 0.05 0.04 0.02 0.02 0.02 0.05 0.06 0.04 0.10 0.03 0.05 0.07 0.05 0.05 0.06 0.00 0.03 0.00 0.03 0.02 0.01 0.00 0.01 0.00 0.00 0.00 0.00 0.01 0.01 0.01 0.00 0.02 0.02 0.01 0.05 0.03 0.09 0.06 0.10 0.04 0.05 0.14 0.04 0.01 0.24 0.35 0.12 0.09 0.01 0.18 0.16 0.15 0.18 0.13 0.01 0.27 0.02
0.28 0.33 0.80 0.91 0.55 0.18 0.08 0.04 0.08 0.08 0.22 0.10 0.25 0.20 0.23 0.11 0.14 0.09 0.14 0.07 0.08 0.22 0.20 0.08 0.06 0.03 0.05 0.08 0.16 0.11 0.08 0.06 0.04 0.04 0.02 0.00 0.00 0.00 0.01 0.01 0.01 0.03 0.06 0.06 0.04 0.08 0.03 0.07 0.03 0.04 0.07 0.02 0.01 0.02 0.01 0.01 0.01 0.01 0.02 0.00 0.00 0.00 0.00 0.00 0.01 0.02 0.04 0.04 0.08 0.13 0.46 0.09 0.04 0.04 0.01 0.03 0.31 0.47 0.10 0.04 0.09 0.05 0.18 0.11 0.15 0.01 0.06 0.21